Back to catalog

STARLINK-11493

AliveCommunicationsVLEO
NORAD 62410·PAYLOAD·🇺🇸 United States

Launched Dec 23, 2024 from Cape Canaveral Space Force Station

Loading…

Next Passes (next 24 hours)

TLE

FreshSource: CelesTrak SupGP

Epoch: Sep 14, 2026, 22:22 UTC

1 62410C 24249B   26257.93243056 -.00015664  00000+0 -12170-3 0  2572
2 62410  43.0004 107.3506 0001555 278.6490 285.5563 15.70838580    10

Track STARLINK-11493 in real time with AllMySat

Download on the App Store